"Pseudo-MPEC" for P21OrSX

Created 2023 Nov 24 14:22:13 UT using Find_Orb

Click here for an explanation of pseudo-MPECs

 
 Astrometry: 
     P21OrSX* C2023 11 19dQv;6jpBhT'=7IeX.WcEl]3[,LAstrometry6P7redacted;\gprF52
     P21OrSX  C2023 11 192fclick:Ttuqv2u;herej)o!l:m)((5T?@ls3iNE/h)=forKZOFOF52
     P21OrSX  C2023 11 19sPENv9uAexplanation$oPwivpE/`sUo;/SXZ3a'b4WabS!^3vb]F52

Station data:
(F52) Pan-STARRS 2, Haleakala  (N20.707382 W156.255910)  US/Hawaii.
   Observers J. Bulger, T. Dukes, T. Lowe, A. Schultz, M. Willman. Measurers
   K. Chambers, S. Chastel, T. de Boer, L. Denneau, J. Fairlamb, H.
   Flewelling, M. Huber, C.-C. Lin, E. Magnier, Y. Ramanjooloo, R. Wainscoat,
   R. Weryk. 1.8-m Ritchey-Chrétien + CCD.

Orbital elements:  P21OrSX
   Perihelion 2024 Jan 16.86948 +/- 25.1 TT = 20:52:03 (JD 2460326.36948)
Epoch 2023 Nov 20.0 TT = JDT 2460268.5   Earth MOID: 0.0160   Ve: 0.0271
M 324.38771837 +/- 25               Ma: 0.0195                   AutoNEOCP
n   0.61538969 +/- 0.418            Peri.   61.46380 +/- 90
a   1.36889215 +/- 0.621            Node    81.03908 +/- 70
e   0.4552994 +/- 0.24              Incl.    3.45750 +/- 8
P   1.60/584.98d           H 25.30  G  0.15   U 12.2  SR
q 0.74563626 +/- 0.259    Q 1.99214804 +/- 34             (J2000 ecliptic)
From 3 observations 2023 Nov. 19 (39.6 min); mean residual 0".02
Residuals in arcseconds: 
231119 F52  .02+  .01+    231119 F52  .03-  .01-    231119 F52  .02+  .01+    

Ephemerides (geocentric):
Date (UTC) HH   RA             Dec           delta  r     elong  mag " sig PA
---- --------  ------------   ------------  ------ ------ -----  --- --------
2023 11 24 14  07 52 58.998   -12 51 20.93  .03399 1.0013 113.4 20.3  61d  90
2023 11 24 15  07 54 51.368   -13 01 24.43  .03384 1.0010 112.9 20.3  61d  90
2023 11 24 16  07 56 44.834   -13 11 29.90  .03370 1.0007 112.5 20.3  61d  90
2023 11 24 17  07 58 39.397   -13 21 37.20  .03356 1.0004 112.0 20.3  61d  90
2023 11 24 18  08 00 35.056   -13 31 46.16  .03343 1.0001 111.6 20.3  61d  90
2023 11 24 19  08 02 31.812   -13 41 56.64  .03329 0.9998 111.1 20.3  61d  90
2023 11 24 20  08 04 29.662   -13 52 08.46  .03316 0.9995 110.7 20.3  61d  90
2023 11 24 21  08 06 28.605   -14 02 21.46  .03303 0.9991 110.2 20.3  61d  90
2023 11 24 22  08 08 28.640   -14 12 35.47  .03291 0.9988 109.7 20.3  61d  90
2023 11 24 23  08 10 29.761   -14 22 50.29  .03279 0.9985 109.2 20.3  61d  90
2023 11 25 00  08 12 31.967   -14 33 05.75  .03267 0.9982 108.8 20.3  61d  90
2023 11 25 01  08 14 35.251   -14 43 21.65  .03255 0.9979 108.3 20.3  61d  90
2023 11 25 02  08 16 39.609   -14 53 37.79  .03243 0.9976 107.8 20.3  60d  90
2023 11 25 03  08 18 45.033   -15 03 53.98  .03232 0.9973 107.3 20.3  60d  90
2023 11 25 04  08 20 51.519   -15 14 10.00  .03221 0.9970 106.8 20.3  60d  90
2023 11 25 05  08 22 59.056   -15 24 25.64  .03211 0.9967 106.3 20.3  60d  90
2023 11 25 06  08 25 07.637   -15 34 40.69  .03200 0.9964 105.8 20.4  60d  90
2023 11 25 07  08 27 17.252   -15 44 54.92  .03190 0.9961 105.3 20.4  60d  90
2023 11 25 08  08 29 27.891   -15 55 08.11  .03180 0.9958 104.8 20.4  60d  90
2023 11 25 09  08 31 39.542   -16 05 20.02  .03171 0.9955 104.3 20.4  60d  90
2023 11 25 10  08 33 52.192   -16 15 30.43  .03162 0.9951 103.8 20.4  60d  90
2023 11 25 11  08 36 05.830   -16 25 39.09  .03153 0.9948 103.2 20.4  60d  90
2023 11 25 12  08 38 20.439   -16 35 45.77  .03144 0.9945 102.7 20.4  60d  90
2023 11 25 13  08 40 36.007   -16 45 50.22  .03136 0.9942 102.2 20.4  60d  90
2023 11 25 14  08 42 52.515   -16 55 52.19  .03128 0.9939 101.7 20.4  60d  91
2023 11 25 15  08 45 09.948   -17 05 51.44  .03120 0.9936 101.1 20.4  60d  91
2023 11 25 16  08 47 28.288   -17 15 47.71  .03113 0.9933 100.6 20.5  60d  91
2023 11 25 17  08 49 47.514   -17 25 40.76  .03106 0.9930 100.1 20.5  60d  91
2023 11 25 18  08 52 07.609   -17 35 30.32  .03099 0.9927  99.5 20.5  60d  91
2023 11 25 19  08 54 28.550   -17 45 16.15  .03093 0.9924  99.0 20.5  60d  91
2023 11 25 20  08 56 50.316   -17 54 57.99  .03087 0.9921  98.4 20.5  60d  91
2023 11 25 21  08 59 12.883   -18 04 35.59  .03081 0.9918  97.9 20.5  60d  91
2023 11 25 22  09 01 36.230   -18 14 08.69  .03076 0.9915  97.3 20.5  60d  91
2023 11 25 23  09 04 00.329   -18 23 37.03  .03070 0.9912  96.8 20.6  60d  91
2023 11 26 00  09 06 25.157   -18 33 00.38  .03066 0.9909  96.2 20.6  59d  91
2023 11 26 01  09 08 50.687   -18 42 18.47  .03061 0.9905  95.7 20.6  59d  91
2023 11 26 02  09 11 16.890   -18 51 31.06  .03057 0.9902  95.1 20.6  59d  91
2023 11 26 03  09 13 43.740   -19 00 37.91  .03053 .98993  94.6 20.6  59d  91
2023 11 26 04  09 16 11.207   -19 09 38.77  .03050 .98963  94.0 20.6  59d  91
2023 11 26 05  09 18 39.260   -19 18 33.40  .03047 .98932  93.5 20.7  59d  91
2023 11 26 06  09 21 07.871   -19 27 21.58  .03044 .98902  92.9 20.7  59d  91
2023 11 26 07  09 23 37.006   -19 36 03.08  .03041 .98871  92.3 20.7  59d  91
2023 11 26 08  09 26 06.634   -19 44 37.66  .03039 .98840  91.8 20.7  59d  91
2023 11 26 09  09 28 36.723   -19 53 05.11  .03037 .98810  91.2 20.7  59d  91
2023 11 26 10  09 31 07.238   -20 01 25.23  .03036 .98779  90.7 20.8  59d  91
2023 11 26 11  09 33 38.147   -20 09 37.79  .03035 .98749  90.1 20.8  59d  91
2023 11 26 12  09 36 09.413   -20 17 42.61  .03034 .98718  89.5 20.8  59d  91
2023 11 26 13  09 38 41.003   -20 25 39.50  .03034 .98687  89.0 20.8  59d  91